Time,TemperatureF,DewpointF,PressureIn,WindDirection,WindDirectionDegrees,WindSpeedMPH,WindSpeedGustMPH,Humidity,HourlyPrecipIn,Conditions,Clouds,dailyrainin,SoftwareType,DateUTC
2013-10-01 00:01:00,49.1,35.6,17.72,North,357,0.0,0.0,58,0.00,,,0.00,WUHU216WMR968SP,2013-10-01 04:01:00,
2013-10-01 00:06:00,48.9,33.8,17.72,North,357,0.0,0.0,58,0.00,,,0.00,WUHU216WMR968SP,2013-10-01 04:06:00,
2013-10-01 00:11:00,48.7,33.8,17.72,North,357,0.0,0.0,58,0.00,,,0.00,WUHU216WMR968SP,2013-10-01 04:11:00,
2013-10-01 00:16:00,48.6,33.8,17.72,North,357,0.0,0.0,58,0.00,,,0.00,WUHU216WMR968SP,2013-10-01 04:16:00,
2013-10-01 00:21:00,48.4,33.8,17.72,North,357,0.0,0.0,58,0.00,,,0.00,WUHU216WMR968SP,2013-10-01 04:21:00,
2013-10-01 00:26:00,48.2,33.8,17.72,North,357,0.0,0.0,58,0.00,,,0.00,WUHU216WMR968SP,2013-10-01 04:26:00,
2013-10-01 00:31:00,48.2,33.8,17.72,North,357,0.0,0.0,58,0.00,,,0.00,WUHU216WMR968SP,2013-10-01 04:31:00,
2013-10-01 00:36:00,48.0,33.8,17.72,North,357,0.0,0.0,59,0.00,,,0.00,WUHU216WMR968SP,2013-10-01 04:36:00,
2013-10-01 00:41:00,48.0,33.8,17.72,North,357,0.0,0.0,59,0.00,,,0.00,WUHU216WMR968SP,2013-10-01 04:41:00,
2013-10-01 00:46:00,47.8,33.8,17.72,North,357,0.0,0.0,59,0.00,,,0.00,WUHU216WMR968SP,2013-10-01 04:46:00,
2013-10-01 00:51:00,47.8,33.8,17.72,North,357,0.0,0.0,59,0.00,,,0.00,WUHU216WMR968SP,2013-10-01 04:51:00,
2013-10-01 00:56:00,48.0,33.8,17.72,North,357,0.0,0.0,59,0.00,,,0.00,WUHU216WMR968SP,2013-10-01 04:56:00,
2013-10-01 01:01:00,48.2,33.8,17.72,North,357,0.0,0.0,59,0.00,,,0.00,WUHU216WMR968SP,2013-10-01 05:01:00,
2013-10-01 01:06:00,48.2,33.8,17.72,North,357,0.0,0.0,59,0.00,,,0.00,WUHU216WMR968SP,2013-10-01 05:06:00,
2013-10-01 01:11:00,48.4,33.8,17.72,North,357,0.0,0.0,59,0.00,,,0.00,WUHU216WMR968SP,2013-10-01 05:11:00,
2013-10-01 01:16:00,48.4,33.8,17.72,North,357,0.0,0.0,59,0.00,,,0.00,WUHU216WMR968SP,2013-10-01 05:16:00,
2013-10-01 01:21:00,48.4,33.8,17.72,North,357,0.0,0.0,59,0.00,,,0.00,WUHU216WMR968SP,2013-10-01 05:21:00,
2013-10-01 01:26:00,48.6,33.8,17.72,North,357,0.0,0.0,59,0.00,,,0.00,WUHU216WMR968SP,2013-10-01 05:26:00,
2013-10-01 01:31:00,48.9,33.8,17.72,North,357,0.0,0.0,59,0.00,,,0.00,WUHU216WMR968SP,2013-10-01 05:31:00,
2013-10-01 01:36:00,49.1,35.6,17.72,North,357,0.0,0.0,59,0.00,,,0.00,WUHU216WMR968SP,2013-10-01 05:36:00,
2013-10-01 01:41:00,49.1,35.6,17.72,North,357,0.0,0.0,59,0.00,,,0.00,WUHU216WMR968SP,2013-10-01 05:41:00,
2013-10-01 01:46:00,48.9,33.8,17.72,North,357,0.0,0.0,59,0.00,,,0.00,WUHU216WMR968SP,2013-10-01 05:46:00,
2013-10-01 01:51:00,48.9,33.8,17.72,North,357,0.0,0.0,59,0.00,,,0.00,WUHU216WMR968SP,2013-10-01 05:51:00,
2013-10-01 01:56:00,48.9,33.8,17.72,North,357,0.0,0.0,59,0.00,,,0.00,WUHU216WMR968SP,2013-10-01 05:56:00,
2013-10-01 02:01:00,48.7,33.8,17.72,North,357,0.0,0.0,59,0.00,,,0.00,WUHU216WMR968SP,2013-10-01 06:01:00,
2013-10-01 02:06:00,48.7,33.8,17.72,North,357,0.0,0.0,59,0.00,,,0.00,WUHU216WMR968SP,2013-10-01 06:06:00,
2013-10-01 02:11:00,48.6,33.8,17.72,North,357,0.0,0.0,59,0.00,,,0.00,WUHU216WMR968SP,2013-10-01 06:11:00,
2013-10-01 02:16:00,48.6,33.8,17.72,North,357,0.0,0.0,59,0.00,,,0.00,WUHU216WMR968SP,2013-10-01 06:16:00,
2013-10-01 02:21:00,48.4,33.8,17.72,North,357,0.0,0.0,59,0.00,,,0.00,WUHU216WMR968SP,2013-10-01 06:21:00,
2013-10-01 02:26:00,48.2,33.8,17.72,North,357,0.0,0.0,59,0.00,,,0.00,WUHU216WMR968SP,2013-10-01 06:26:00,
2013-10-01 02:31:00,48.2,33.8,17.72,North,357,0.0,0.0,59,0.00,,,0.00,WUHU216WMR968SP,2013-10-01 06:31:00,
2013-10-01 02:36:00,48.4,33.8,17.72,North,357,0.0,0.0,59,0.00,,,0.00,WUHU216WMR968SP,2013-10-01 06:36:00,
2013-10-01 02:41:00,48.6,33.8,17.72,North,357,0.0,0.0,59,0.00,,,0.00,WUHU216WMR968SP,2013-10-01 06:41:00,
2013-10-01 02:46:00,48.6,33.8,17.72,North,357,0.0,0.0,59,0.00,,,0.00,WUHU216WMR968SP,2013-10-01 06:46:00,
2013-10-01 02:51:00,48.7,33.8,17.72,North,357,0.0,0.0,59,0.00,,,0.00,WUHU216WMR968SP,2013-10-01 06:51:00,
2013-10-01 02:56:00,48.9,33.8,17.72,North,357,0.0,0.0,59,0.00,,,0.00,WUHU216WMR968SP,2013-10-01 06:56:00,
2013-10-01 03:01:00,48.9,33.8,17.72,North,357,0.0,0.0,59,0.00,,,0.00,WUHU216WMR968SP,2013-10-01 07:01:00,
2013-10-01 03:06:00,48.9,33.8,17.72,North,357,0.0,0.0,59,0.00,,,0.00,WUHU216WMR968SP,2013-10-01 07:06:00,
2013-10-01 03:11:00,48.9,33.8,17.72,North,357,0.0,0.0,59,0.00,,,0.00,WUHU216WMR968SP,2013-10-01 07:11:00,
2013-10-01 03:16:00,48.9,33.8,17.72,North,357,0.0,0.0,59,0.00,,,0.00,WUHU216WMR968SP,2013-10-01 07:16:00,
2013-10-01 03:22:00,48.9,33.8,17.72,North,357,0.0,0.0,59,0.00,,,0.00,WUHU216WMR968SP,2013-10-01 07:22:00,
2013-10-01 03:27:00,48.7,33.8,17.72,North,357,0.0,0.0,59,0.00,,,0.00,WUHU216WMR968SP,2013-10-01 07:27:00,
2013-10-01 03:32:00,48.7,33.8,17.72,North,357,0.0,0.0,59,0.00,,,0.00,WUHU216WMR968SP,2013-10-01 07:32:00,
2013-10-01 03:37:00,48.6,33.8,17.72,North,357,0.0,0.0,59,0.00,,,0.00,WUHU216WMR968SP,2013-10-01 07:37:00,
2013-10-01 03:42:00,48.6,33.8,17.72,North,357,0.0,0.0,59,0.00,,,0.00,WUHU216WMR968SP,2013-10-01 07:42:00,
2013-10-01 03:47:00,48.6,33.8,17.72,North,357,0.0,0.0,59,0.00,,,0.00,WUHU216WMR968SP,2013-10-01 07:47:00,
2013-10-01 03:52:00,48.6,33.8,17.72,North,357,0.0,0.0,59,0.00,,,0.00,WUHU216WMR968SP,2013-10-01 07:52:00,
2013-10-01 03:57:00,48.4,33.8,17.72,North,357,0.0,0.0,59,0.00,,,0.00,WUHU216WMR968SP,2013-10-01 07:57:00,
2013-10-01 04:02:00,48.4,33.8,17.72,North,357,0.0,0.0,59,0.00,,,0.00,WUHU216WMR968SP,2013-10-01 08:02:00,
2013-10-01 04:07:00,48.4,33.8,17.72,North,357,0.0,0.0,59,0.00,,,0.00,WUHU216WMR968SP,2013-10-01 08:07:00,
2013-10-01 04:12:00,48.4,33.8,17.72,North,357,0.0,0.0,59,0.00,,,0.00,WUHU216WMR968SP,2013-10-01 08:12:00,
2013-10-01 04:17:00,48.4,33.8,17.72,North,357,0.0,0.0,59,0.00,,,0.00,WUHU216WMR968SP,2013-10-01 08:17:00,
2013-10-01 04:22:00,48.4,33.8,17.72,North,357,0.0,0.0,59,0.00,,,0.00,WUHU216WMR968SP,2013-10-01 08:22:00,
2013-10-01 04:27:00,48.2,33.8,17.72,North,357,0.0,0.0,59,0.00,,,0.00,WUHU216WMR968SP,2013-10-01 08:27:00,
2013-10-01 04:32:00,48.2,33.8,17.72,North,357,0.0,0.0,59,0.00,,,0.00,WUHU216WMR968SP,2013-10-01 08:32:00,
2013-10-01 04:37:00,48.4,33.8,17.72,North,357,0.0,0.0,59,0.00,,,0.00,WUHU216WMR968SP,2013-10-01 08:37:00,
2013-10-01 04:42:00,48.4,33.8,17.72,North,357,0.0,0.0,59,0.00,,,0.00,WUHU216WMR968SP,2013-10-01 08:42:00,
2013-10-01 04:47:00,48.4,33.8,17.72,North,357,0.0,0.0,59,0.00,,,0.00,WUHU216WMR968SP,2013-10-01 08:47:00,
2013-10-01 04:52:00,48.2,33.8,17.72,North,357,0.0,0.0,59,0.00,,,0.00,WUHU216WMR968SP,2013-10-01 08:52:00,
2013-10-01 04:57:00,48.2,33.8,17.72,North,357,0.0,0.0,59,0.00,,,0.00,WUHU216WMR968SP,2013-10-01 08:57:00,
2013-10-01 05:02:00,48.2,33.8,17.72,SSW,200,0.0,0.0,59,0.00,,,0.00,WUHU216WMR968SP,2013-10-01 09:02:00,
2013-10-01 05:07:00,48.2,33.8,17.72,SSW,194,0.0,0.0,59,0.00,,,0.00,WUHU216WMR968SP,2013-10-01 09:07:00,
2013-10-01 05:12:00,48.2,33.8,17.72,South,177,0.0,0.0,59,0.00,,,0.00,WUHU216WMR968SP,2013-10-01 09:12:00,
2013-10-01 05:17:00,48.0,33.8,17.72,SE,139,0.0,0.0,59,0.00,,,0.00,WUHU216WMR968SP,2013-10-01 09:17:00,
2013-10-01 05:22:00,48.0,33.8,17.72,SE,139,0.0,0.0,59,0.00,,,0.00,WUHU216WMR968SP,2013-10-01 09:22:00,
2013-10-01 05:27:00,47.8,33.8,17.72,SE,139,0.0,0.0,59,0.00,,,0.00,WUHU216WMR968SP,2013-10-01 09:27:00,
2013-10-01 05:32:00,47.7,33.8,17.72,SE,141,0.0,0.0,59,0.00,,,0.00,WUHU216WMR968SP,2013-10-01 09:32:00,
2013-10-01 05:37:00,47.7,33.8,17.72,SE,141,0.0,0.0,59,0.00,,,0.00,WUHU216WMR968SP,2013-10-01 09:37:00,
2013-10-01 05:42:00,47.5,33.8,17.72,SE,144,0.0,0.0,59,0.00,,,0.00,WUHU216WMR968SP,2013-10-01 09:42:00,
2013-10-01 05:47:00,47.5,33.8,17.72,SE,146,0.0,0.0,59,0.00,,,0.00,WUHU216WMR968SP,2013-10-01 09:47:00,
2013-10-01 05:52:00,47.3,33.8,17.72,SE,139,0.0,0.0,59,0.00,,,0.00,WUHU216WMR968SP,2013-10-01 09:52:00,
2013-10-01 05:57:00,47.3,33.8,17.72,SSE,154,0.0,0.0,59,0.00,,,0.00,WUHU216WMR968SP,2013-10-01 09:57:00,
2013-10-01 06:02:00,47.1,33.8,17.72,SE,131,0.0,0.0,59,0.00,,,0.00,WUHU216WMR968SP,2013-10-01 10:02:00,
2013-10-01 06:08:00,46.9,33.8,17.72,SSE,151,0.0,0.0,59,0.00,,,0.00,WUHU216WMR968SP,2013-10-01 10:08:00,
2013-10-01 06:13:00,46.8,33.8,17.72,SSE,151,0.0,0.0,59,0.00,,,0.00,WUHU216WMR968SP,2013-10-01 10:13:00,
2013-10-01 06:18:00,46.6,33.8,17.72,SE,127,0.0,0.0,59,0.00,,,0.00,WUHU216WMR968SP,2013-10-01 10:18:00,
2013-10-01 06:23:00,46.4,33.8,17.72,SE,127,0.0,0.0,59,0.00,,,0.00,WUHU216WMR968SP,2013-10-01 10:23:00,
2013-10-01 06:28:00,46.4,33.8,17.72,SE,127,0.0,0.0,59,0.00,,,0.00,WUHU216WMR968SP,2013-10-01 10:28:00,
2013-10-01 06:33:00,46.2,33.8,17.72,SE,127,0.0,0.0,60,0.00,,,0.00,WUHU216WMR968SP,2013-10-01 10:33:00,
2013-10-01 06:38:00,46.0,33.8,17.72,SE,127,0.0,0.0,60,0.00,,,0.00,WUHU216WMR968SP,2013-10-01 10:38:00,
2013-10-01 06:43:00,45.7,33.8,17.72,SE,127,0.0,0.0,59,0.00,,,0.00,WUHU216WMR968SP,2013-10-01 10:43:00,
2013-10-01 06:48:00,45.5,33.8,17.72,SE,127,0.0,0.0,59,0.00,,,0.00,WUHU216WMR968SP,2013-10-01 10:48:00,
2013-10-01 06:53:00,45.3,32.0,17.72,SE,127,0.0,0.0,59,0.00,,,0.00,WUHU216WMR968SP,2013-10-01 10:53:00,
2013-10-01 06:58:00,45.3,32.0,17.72,SE,127,0.0,0.0,59,0.00,,,0.00,WUHU216WMR968SP,2013-10-01 10:58:00,
2013-10-01 07:03:00,45.3,32.0,17.72,SE,127,0.0,0.0,59,0.00,,,0.00,WUHU216WMR968SP,2013-10-01 11:03:00,
2013-10-01 07:08:00,45.3,32.0,17.72,SE,127,0.0,0.0,59,0.00,,,0.00,WUHU216WMR968SP,2013-10-01 11:08:00,
2013-10-01 07:13:00,45.5,33.8,17.72,SE,127,0.0,0.0,59,0.00,,,0.00,WUHU216WMR968SP,2013-10-01 11:13:00,
2013-10-01 07:18:00,45.9,33.8,17.72,SE,127,0.0,0.0,60,0.00,,,0.00,WUHU216WMR968SP,2013-10-01 11:18:00,
2013-10-01 07:23:00,46.0,33.8,17.72,SE,127,0.0,0.0,60,0.00,,,0.00,WUHU216WMR968SP,2013-10-01 11:23:00,
2013-10-01 07:28:00,46.2,33.8,17.72,SE,127,0.0,0.0,60,0.00,,,0.00,WUHU216WMR968SP,2013-10-01 11:28:00,
2013-10-01 07:33:00,46.2,33.8,17.72,SE,127,0.0,0.0,60,0.00,,,0.00,WUHU216WMR968SP,2013-10-01 11:33:00,
2013-10-01 07:38:00,46.4,33.8,17.72,SE,124,0.0,0.0,59,0.00,,,0.00,WUHU216WMR968SP,2013-10-01 11:38:00,
2013-10-01 07:43:00,46.8,33.8,17.72,SE,144,0.0,0.0,59,0.00,,,0.00,WUHU216WMR968SP,2013-10-01 11:43:00,
2013-10-01 07:48:00,46.8,33.8,17.72,SE,144,0.0,0.0,59,0.00,,,0.00,WUHU216WMR968SP,2013-10-01 11:48:00,
2013-10-01 07:53:00,46.9,33.8,17.72,SE,144,0.0,0.0,59,0.00,,,0.00,WUHU216WMR968SP,2013-10-01 11:53:00,
2013-10-01 07:58:00,46.9,33.8,17.72,SE,144,0.0,0.0,59,0.00,,,0.00,WUHU216WMR968SP,2013-10-01 11:58:00,
2013-10-01 08:03:00,46.9,33.8,17.72,SE,144,0.0,0.0,59,0.00,,,0.00,WUHU216WMR968SP,2013-10-01 12:03:00,
2013-10-01 08:08:00,47.1,33.8,17.72,SE,144,0.0,0.0,59,0.00,,,0.00,WUHU216WMR968SP,2013-10-01 12:08:00,
2013-10-01 08:13:00,47.3,33.8,17.72,SE,144,0.0,0.0,59,0.00,,,0.00,WUHU216WMR968SP,2013-10-01 12:13:00,
2013-10-01 08:18:00,47.5,33.8,17.72,SE,144,0.0,0.0,59,0.00,,,0.00,WUHU216WMR968SP,2013-10-01 12:18:00,
2013-10-01 08:23:00,47.8,33.8,17.72,SE,144,0.0,0.0,59,0.00,,,0.00,WUHU216WMR968SP,2013-10-01 12:23:00,
2013-10-01 08:29:00,48.6,33.8,17.72,SE,144,0.0,0.0,59,0.00,,,0.00,WUHU216WMR968SP,2013-10-01 12:29:00,
2013-10-01 08:33:00,48.7,33.8,17.72,SE,144,0.0,0.0,59,0.00,,,0.00,WUHU216WMR968SP,2013-10-01 12:33:00,
2013-10-01 08:38:00,49.3,35.6,17.72,SE,144,0.0,0.0,59,0.00,,,0.00,WUHU216WMR968SP,2013-10-01 12:38:00,
2013-10-01 08:44:00,49.8,35.6,17.72,SE,140,0.0,0.0,59,0.00,,,0.00,WUHU216WMR968SP,2013-10-01 12:44:00,
2013-10-01 08:49:00,50.5,35.6,17.72,SE,140,0.0,0.0,59,0.00,,,0.00,WUHU216WMR968SP,2013-10-01 12:49:00,
2013-10-01 08:54:00,51.3,37.4,17.72,SE,140,0.0,0.0,59,0.00,,,0.00,WUHU216WMR968SP,2013-10-01 12:54:00,
2013-10-01 08:59:00,52.0,37.4,17.72,SE,140,0.0,0.0,58,0.00,,,0.00,WUHU216WMR968SP,2013-10-01 12:59:00,
2013-10-01 09:04:00,52.5,37.4,17.72,SE,140,0.0,0.0,58,0.00,,,0.00,WUHU216WMR968SP,2013-10-01 13:04:00,
2013-10-01 09:09:00,53.2,39.2,17.72,ESE,117,0.0,0.0,58,0.00,,,0.00,WUHU216WMR968SP,2013-10-01 13:09:00,
2013-10-01 09:14:00,53.8,39.2,17.72,SSE,164,0.0,0.0,58,0.00,,,0.00,WUHU216WMR968SP,2013-10-01 13:14:00,
2013-10-01 09:19:00,54.5,41.0,17.72,SE,143,0.0,0.0,58,0.00,,,0.00,WUHU216WMR968SP,2013-10-01 13:19:00,
2013-10-01 09:24:00,55.2,41.0,17.72,ESE,110,0.0,0.0,58,0.00,,,0.00,WUHU216WMR968SP,2013-10-01 13:24:00,
2013-10-01 09:29:00,55.9,41.0,17.72,South,184,0.0,0.0,57,0.00,,,0.00,WUHU216WMR968SP,2013-10-01 13:29:00,
2013-10-01 09:34:00,56.7,42.8,17.72,SSW,210,0.0,0.0,57,0.00,,,0.00,WUHU216WMR968SP,2013-10-01 13:34:00,
2013-10-01 09:39:00,57.2,42.8,17.72,SSW,210,0.0,0.0,57,0.00,,,0.00,WUHU216WMR968SP,2013-10-01 13:39:00,
2013-10-01 09:44:00,57.9,41.0,17.72,NE,36,0.0,0.0,56,0.00,,,0.00,WUHU216WMR968SP,2013-10-01 13:44:00,
2013-10-01 09:49:00,58.5,42.8,17.72,NE,36,0.0,0.0,55,0.00,,,0.00,WUHU216WMR968SP,2013-10-01 13:49:00,
2013-10-01 09:54:00,59.2,42.8,17.72,North,5,0.0,0.0,54,0.00,,,0.00,WUHU216WMR968SP,2013-10-01 13:54:00,
2013-10-01 09:59:00,59.7,41.0,17.72,North,357,0.0,0.0,52,0.00,,,0.00,WUHU216WMR968SP,2013-10-01 13:59:00,
2013-10-01 10:04:00,60.8,41.0,17.72,North,0,0.0,0.0,49,0.00,,,0.00,WUHU216WMR968SP,2013-10-01 14:04:00,
2013-10-01 10:09:00,61.3,41.0,17.72,North,0,0.0,0.0,47,0.00,,,0.00,WUHU216WMR968SP,2013-10-01 14:09:00,
2013-10-01 10:14:00,62.1,41.0,17.72,North,7,0.0,0.0,46,0.00,,,0.00,WUHU216WMR968SP,2013-10-01 14:14:00,
2013-10-01 10:19:00,63.0,41.0,17.72,NNE,18,0.0,0.0,45,0.00,,,0.00,WUHU216WMR968SP,2013-10-01 14:19:00,
2013-10-01 10:24:00,63.5,42.8,17.72,NNE,24,4.5,6.3,44,0.00,,,0.00,WUHU216WMR968SP,2013-10-01 14:24:00,
2013-10-01 10:29:00,64.0,41.0,17.72,NNE,24,0.0,6.3,43,0.00,,,0.00,WUHU216WMR968SP,2013-10-01 14:29:00,
2013-10-01 10:34:00,64.6,41.0,17.72,NNE,22,0.0,5.8,42,0.00,,,0.00,WUHU216WMR968SP,2013-10-01 14:34:00,
2013-10-01 10:39:00,65.1,39.2,17.72,NNE,21,3.1,4.0,39,0.00,,,0.00,WUHU216WMR968SP,2013-10-01 14:39:00,
2013-10-01 10:44:00,65.8,39.2,17.72,NNE,15,0.0,4.0,38,0.00,,,0.00,WUHU216WMR968SP,2013-10-01 14:44:00,
2013-10-01 10:49:00,66.2,39.2,17.72,NE,46,0.0,3.1,37,0.00,,,0.00,WUHU216WMR968SP,2013-10-01 14:49:00,
2013-10-01 10:54:00,66.6,37.4,17.72,ENE,73,0.0,0.0,35,0.00,,,0.00,WUHU216WMR968SP,2013-10-01 14:54:00,
2013-10-01 10:59:00,67.3,39.2,17.72,NNE,14,0.0,0.0,34,0.00,,,0.00,WUHU216WMR968SP,2013-10-01 14:59:00,
2013-10-01 11:04:00,67.6,37.4,17.72,North,0,0.0,0.0,33,0.00,,,0.00,WUHU216WMR968SP,2013-10-01 15:04:00,
2013-10-01 11:10:00,68.5,37.4,17.72,North,11,0.0,0.0,32,0.00,,,0.00,WUHU216WMR968SP,2013-10-01 15:10:00,
2013-10-01 11:15:00,69.1,33.8,17.72,SSW,193,0.0,2.7,26,0.00,,,0.00,WUHU216WMR968SP,2013-10-01 15:15:00,
2013-10-01 11:20:00,69.6,33.8,17.72,NNE,28,0.0,3.1,27,0.00,,,0.00,WUHU216WMR968SP,2013-10-01 15:20:00,
2013-10-01 11:25:00,70.0,30.4,17.72,ENE,75,0.0,4.0,23,0.00,,,0.00,WUHU216WMR968SP,2013-10-01 15:25:00,
2013-10-01 11:30:00,70.3,30.6,17.72,ENE,71,0.0,4.0,23,0.00,,,0.00,WUHU216WMR968SP,2013-10-01 15:30:00,
2013-10-01 11:35:00,70.3,29.6,17.72,SE,135,0.0,5.8,22,0.00,,,0.00,WUHU216WMR968SP,2013-10-01 15:35:00,
2013-10-01 11:40:00,70.7,32.0,17.72,South,186,0.0,5.8,23,0.00,,,0.00,WUHU216WMR968SP,2013-10-01 15:40:00,
2013-10-01 11:45:00,70.9,30.1,17.72,SSW,204,0.0,5.8,22,0.00,,,0.00,WUHU216WMR968SP,2013-10-01 15:45:00,
2013-10-01 11:50:00,71.2,30.3,17.72,SE,138,0.0,4.9,22,0.00,,,0.00,WUHU216WMR968SP,2013-10-01 15:50:00,
2013-10-01 11:55:00,71.2,30.3,17.72,South,169,2.7,5.4,22,0.00,,,0.00,WUHU216WMR968SP,2013-10-01 15:55:00,
2013-10-01 12:00:00,71.4,30.5,17.72,WSW,247,0.0,5.4,22,0.00,,,0.00,WUHU216WMR968SP,2013-10-01 16:00:00,
2013-10-01 12:05:00,71.6,29.5,17.72,SE,136,0.0,6.3,21,0.00,,,0.00,WUHU216WMR968SP,2013-10-01 16:05:00,
2013-10-01 12:10:00,72.0,29.9,17.72,South,176,2.7,6.3,21,0.00,,,0.00,WUHU216WMR968SP,2013-10-01 16:10:00,
2013-10-01 12:15:00,72.1,29.9,17.72,ENE,75,0.0,4.0,21,0.00,,,0.00,WUHU216WMR968SP,2013-10-01 16:15:00,
2013-10-01 12:20:00,72.3,30.1,17.72,SE,125,0.0,3.6,21,0.00,,,0.00,WUHU216WMR968SP,2013-10-01 16:20:00,
2013-10-01 12:25:00,72.5,27.8,17.72,SE,134,2.2,6.3,19,0.00,,,0.00,WUHU216WMR968SP,2013-10-01 16:25:00,
2013-10-01 12:30:00,72.7,32.0,17.72,East,101,0.0,8.1,21,0.00,,,0.00,WUHU216WMR968SP,2013-10-01 16:30:00,
2013-10-01 12:31:00,72.7,32.0,17.72,East,79,0.0,8.1,21,0.00,,,0.00,WUHU216WMR968SP,2013-10-01 16:31:00,
2013-10-01 12:36:00,73.0,28.3,17.72,SSW,204,0.0,8.1,19,0.00,,,0.00,WUHU216WMR968SP,2013-10-01 16:36:00,
2013-10-01 12:41:00,73.2,28.4,17.72,SSW,194,2.2,7.2,19,0.00,,,0.00,WUHU216WMR968SP,2013-10-01 16:41:00,
2013-10-01 12:46:00,73.2,28.4,17.72,SSE,166,0.0,4.0,19,0.00,,,0.00,WUHU216WMR968SP,2013-10-01 16:46:00,
2013-10-01 12:51:00,73.4,27.3,17.72,SW,218,2.2,4.0,18,0.00,,,0.00,WUHU216WMR968SP,2013-10-01 16:51:00,
2013-10-01 12:56:00,73.6,27.4,17.72,NNW,333,2.2,5.8,18,0.00,,,0.00,WUHU216WMR968SP,2013-10-01 16:56:00,
2013-10-01 13:01:00,73.8,24.7,17.72,South,172,0.0,5.8,16,0.00,,,0.00,WUHU216WMR968SP,2013-10-01 17:01:00,
2013-10-01 13:06:00,74.1,25.0,17.72,SE,138,3.6,7.6,16,0.00,,,0.00,WUHU216WMR968SP,2013-10-01 17:06:00,
2013-10-01 13:11:00,74.3,28.0,17.72,WSW,252,2.7,7.6,18,0.00,,,0.00,WUHU216WMR968SP,2013-10-01 17:11:00,
2013-10-01 13:16:00,74.3,25.1,17.72,South,173,3.1,6.3,16,0.00,,,0.00,WUHU216WMR968SP,2013-10-01 17:16:00,
2013-10-01 13:21:00,74.3,25.1,17.72,SW,220,3.6,7.2,16,0.00,,,0.00,WUHU216WMR968SP,2013-10-01 17:21:00,
2013-10-01 13:26:00,74.5,25.3,17.72,SSE,163,4.5,7.2,16,0.00,,,0.00,WUHU216WMR968SP,2013-10-01 17:26:00,
2013-10-01 13:31:00,74.5,25.3,17.72,SSE,149,0.0,5.8,16,0.00,,,0.00,WUHU216WMR968SP,2013-10-01 17:31:00,
2013-10-01 13:36:00,74.8,25.5,17.72,NNW,327,3.6,6.3,16,0.00,,,0.00,WUHU216WMR968SP,2013-10-01 17:36:00,
2013-10-01 13:41:00,75.0,25.7,17.72,NE,42,2.2,6.3,16,0.00,,,0.00,WUHU216WMR968SP,2013-10-01 17:41:00,
2013-10-01 13:46:00,75.0,25.7,17.72,SSW,213,0.0,8.1,16,0.00,,,0.00,WUHU216WMR968SP,2013-10-01 17:46:00,
2013-10-01 13:51:00,75.4,24.5,17.72,SSE,163,2.2,8.1,15,0.00,,,0.00,WUHU216WMR968SP,2013-10-01 17:51:00,
2013-10-01 13:56:00,75.4,24.5,17.72,East,91,2.2,6.7,15,0.00,,,0.00,WUHU216WMR968SP,2013-10-01 17:56:00,
2013-10-01 14:01:00,75.2,24.3,17.72,SE,144,3.6,6.7,15,0.00,,,0.00,WUHU216WMR968SP,2013-10-01 18:01:00,
2013-10-01 14:06:00,75.4,24.5,17.72,South,172,0.0,7.6,15,0.00,,,0.00,WUHU216WMR968SP,2013-10-01 18:06:00,
2013-10-01 14:11:00,75.4,24.5,17.72,ESE,118,3.6,7.6,15,0.00,,,0.00,WUHU216WMR968SP,2013-10-01 18:11:00,
2013-10-01 14:16:00,75.6,24.6,17.72,SW,230,3.6,7.6,15,0.00,,,0.00,WUHU216WMR968SP,2013-10-01 18:16:00,
2013-10-01 14:21:00,75.6,24.6,17.72,SSE,153,2.2,6.3,15,0.00,,,0.00,WUHU216WMR968SP,2013-10-01 18:21:00,
2013-10-01 14:26:00,75.6,24.6,17.72,South,177,3.6,8.1,15,0.00,,,0.00,WUHU216WMR968SP,2013-10-01 18:26:00,
2013-10-01 14:31:00,75.6,24.6,17.72,South,179,4.9,10.5,15,0.00,,,0.00,WUHU216WMR968SP,2013-10-01 18:31:00,
2013-10-01 14:36:00,75.2,28.7,17.72,SSW,212,3.1,10.5,18,0.00,,,0.00,WUHU216WMR968SP,2013-10-01 18:36:00,
2013-10-01 14:42:00,75.6,24.6,17.72,West,262,4.5,8.7,15,0.00,,,0.00,WUHU216WMR968SP,2013-10-01 18:42:00,
2013-10-01 14:47:00,75.6,29.1,17.72,SSE,151,3.6,8.7,18,0.00,,,0.00,WUHU216WMR968SP,2013-10-01 18:47:00,
2013-10-01 14:52:00,75.6,29.1,17.72,SSW,210,2.2,7.6,18,0.00,,,0.00,WUHU216WMR968SP,2013-10-01 18:52:00,
2013-10-01 14:57:00,75.7,29.2,17.72,NNE,31,4.5,7.6,18,0.00,,,0.00,WUHU216WMR968SP,2013-10-01 18:57:00,
2013-10-01 15:02:00,75.9,29.3,17.72,SSW,210,3.6,7.6,18,0.00,,,0.00,WUHU216WMR968SP,2013-10-01 19:02:00,
2013-10-01 15:07:00,75.9,29.3,17.72,WSW,244,5.4,11.0,18,0.00,,,0.00,WUHU216WMR968SP,2013-10-01 19:07:00,
2013-10-01 15:12:00,75.6,29.1,17.72,SE,132,6.3,11.0,18,0.00,,,0.00,WUHU216WMR968SP,2013-10-01 19:12:00,
2013-10-01 15:17:00,75.6,29.1,17.72,WSW,243,2.2,8.1,18,0.00,,,0.00,WUHU216WMR968SP,2013-10-01 19:17:00,
2013-10-01 15:22:00,75.4,28.9,17.72,SW,227,3.6,7.6,18,0.00,,,0.00,WUHU216WMR968SP,2013-10-01 19:22:00,
2013-10-01 15:27:00,75.4,28.9,17.72,South,184,4.9,5.8,18,0.00,,,0.00,WUHU216WMR968SP,2013-10-01 19:27:00,
2013-10-01 15:32:00,75.4,32.0,17.72,North,353,0.0,5.8,20,0.00,,,0.00,WUHU216WMR968SP,2013-10-01 19:32:00,
2013-10-01 15:37:00,75.2,32.0,17.72,North,0,0.0,5.4,20,0.00,,,0.00,WUHU216WMR968SP,2013-10-01 19:37:00,
2013-10-01 15:42:00,75.2,32.0,17.72,NE,52,5.8,9.6,20,0.00,,,0.00,WUHU216WMR968SP,2013-10-01 19:42:00,
2013-10-01 15:47:00,75.2,32.0,17.72,SE,145,2.2,9.6,20,0.00,,,0.00,WUHU216WMR968SP,2013-10-01 19:47:00,
2013-10-01 15:52:00,75.2,32.0,17.72,WSW,240,3.1,5.8,20,0.00,,,0.00,WUHU216WMR968SP,2013-10-01 19:52:00,
2013-10-01 15:57:00,75.0,32.0,17.72,NE,51,2.7,5.8,21,0.00,,,0.00,WUHU216WMR968SP,2013-10-01 19:57:00,
2013-10-01 16:02:00,75.0,32.0,17.72,WNW,295,0.0,7.6,21,0.00,,,0.00,WUHU216WMR968SP,2013-10-01 20:02:00,
2013-10-01 16:07:00,74.8,32.0,17.72,South,171,2.7,8.3,21,0.00,,,0.00,WUHU216WMR968SP,2013-10-01 20:07:00,
2013-10-01 16:12:00,74.8,32.0,17.72,SE,139,4.0,8.3,21,0.00,,,0.00,WUHU216WMR968SP,2013-10-01 20:12:00,
2013-10-01 16:17:00,74.8,32.0,17.72,SW,234,3.1,6.3,21,0.00,,,0.00,WUHU216WMR968SP,2013-10-01 20:17:00,
2013-10-01 16:22:00,74.8,32.0,17.72,SE,137,3.1,7.2,21,0.00,,,0.00,WUHU216WMR968SP,2013-10-01 20:22:00,
2013-10-01 16:27:00,74.7,32.0,17.72,ENE,67,0.0,7.2,21,0.00,,,0.00,WUHU216WMR968SP,2013-10-01 20:27:00,
2013-10-01 16:32:00,74.5,32.0,17.72,NNE,14,0.0,7.6,21,0.00,,,0.00,WUHU216WMR968SP,2013-10-01 20:32:00,
2013-10-01 16:37:00,74.5,32.0,17.72,East,91,0.0,7.6,21,0.00,,,0.00,WUHU216WMR968SP,2013-10-01 20:37:00,
2013-10-01 16:42:00,74.3,32.0,17.72,SW,225,0.0,5.8,21,0.00,,,0.00,WUHU216WMR968SP,2013-10-01 20:42:00,
2013-10-01 16:47:00,74.1,32.0,17.72,South,189,0.0,7.6,22,0.00,,,0.00,WUHU216WMR968SP,2013-10-01 20:47:00,
2013-10-01 16:52:00,73.9,32.0,17.72,South,181,3.1,7.6,22,0.00,,,0.00,WUHU216WMR968SP,2013-10-01 20:52:00,
2013-10-01 16:57:00,73.8,32.0,17.72,SW,226,0.0,6.3,22,0.00,,,0.00,WUHU216WMR968SP,2013-10-01 20:57:00,
2013-10-01 17:02:00,73.6,32.0,17.72,SSE,156,0.0,3.6,22,0.00,,,0.00,WUHU216WMR968SP,2013-10-01 21:02:00,
2013-10-01 17:07:00,73.4,32.0,17.72,SSE,158,0.0,3.1,22,0.00,,,0.00,WUHU216WMR968SP,2013-10-01 21:07:00,
2013-10-01 17:12:00,73.2,33.8,17.72,East,87,0.0,3.6,23,0.00,,,0.00,WUHU216WMR968SP,2013-10-01 21:12:00,
2013-10-01 17:17:00,72.9,33.8,17.72,SE,127,0.0,3.6,23,0.00,,,0.00,WUHU216WMR968SP,2013-10-01 21:17:00,
2013-10-01 17:22:00,72.7,33.8,17.72,SW,220,0.0,0.0,24,0.00,,,0.00,WUHU216WMR968SP,2013-10-01 21:22:00,
2013-10-01 17:27:00,72.1,35.6,17.72,SSW,200,0.0,0.0,26,0.00,,,0.00,WUHU216WMR968SP,2013-10-01 21:27:00,
2013-10-01 17:32:00,71.8,37.4,17.72,SW,227,0.0,0.0,28,0.00,,,0.00,WUHU216WMR968SP,2013-10-01 21:32:00,
2013-10-01 17:37:00,71.2,37.4,17.72,SW,215,0.0,0.0,29,0.00,,,0.00,WUHU216WMR968SP,2013-10-01 21:37:00,
2013-10-01 17:42:00,70.9,39.2,17.72,ESE,116,0.0,0.0,31,0.00,,,0.00,WUHU216WMR968SP,2013-10-01 21:42:00,
2013-10-01 17:47:00,70.3,39.2,17.72,NE,43,0.0,0.0,32,0.00,,,0.00,WUHU216WMR968SP,2013-10-01 21:47:00,
2013-10-01 17:52:00,70.0,39.2,17.72,ENE,59,0.0,0.0,32,0.00,,,0.00,WUHU216WMR968SP,2013-10-01 21:52:00,
2013-10-01 17:57:00,69.4,39.2,17.72,ESE,114,0.0,0.0,33,0.00,,,0.00,WUHU216WMR968SP,2013-10-01 21:57:00,
2013-10-01 18:02:00,68.7,39.2,17.72,SSW,205,0.0,0.0,34,0.00,,,0.00,WUHU216WMR968SP,2013-10-01 22:02:00,
2013-10-01 18:07:00,68.2,41.0,17.72,South,184,0.0,0.0,36,0.00,,,0.00,WUHU216WMR968SP,2013-10-01 22:07:00,
2013-10-01 18:12:00,67.5,41.0,17.72,South,184,0.0,0.0,37,0.00,,,0.00,WUHU216WMR968SP,2013-10-01 22:12:00,
2013-10-01 18:17:00,66.9,39.2,17.72,South,175,0.0,0.0,37,0.00,,,0.00,WUHU216WMR968SP,2013-10-01 22:17:00,
2013-10-01 18:22:00,66.4,41.0,17.72,South,175,0.0,0.0,39,0.00,,,0.00,WUHU216WMR968SP,2013-10-01 22:22:00,
2013-10-01 18:27:00,65.8,41.0,17.72,South,175,0.0,0.0,41,0.00,,,0.00,WUHU216WMR968SP,2013-10-01 22:27:00,
2013-10-01 18:32:00,65.5,42.8,17.72,South,175,0.0,0.0,44,0.00,,,0.00,WUHU216WMR968SP,2013-10-01 22:32:00,
2013-10-01 18:38:00,64.9,42.8,17.72,South,175,0.0,0.0,45,0.00,,,0.00,WUHU216WMR968SP,2013-10-01 22:38:00,
2013-10-01 18:42:00,64.4,42.8,17.72,South,175,0.0,0.0,45,0.00,,,0.00,WUHU216WMR968SP,2013-10-01 22:42:00,
2013-10-01 18:48:00,64.0,42.8,17.72,South,175,0.0,0.0,47,0.00,,,0.00,WUHU216WMR968SP,2013-10-01 22:48:00,
2013-10-01 18:53:00,63.7,42.8,17.72,South,175,0.0,0.0,47,0.00,,,0.00,WUHU216WMR968SP,2013-10-01 22:53:00,
2013-10-01 18:58:00,63.1,42.8,17.72,South,175,0.0,0.0,48,0.00,,,0.00,WUHU216WMR968SP,2013-10-01 22:58:00,
2013-10-01 19:03:00,62.8,42.8,17.72,South,175,0.0,0.0,50,0.00,,,0.00,WUHU216WMR968SP,2013-10-01 23:03:00,
2013-10-01 19:08:00,62.4,42.8,17.72,South,175,0.0,0.0,50,0.00,,,0.00,WUHU216WMR968SP,2013-10-01 23:08:00,
2013-10-01 19:13:00,62.1,44.6,17.72,South,175,0.0,0.0,51,0.00,,,0.00,WUHU216WMR968SP,2013-10-01 23:13:00,
2013-10-01 19:18:00,61.7,44.6,17.72,South,175,0.0,0.0,51,0.00,,,0.00,WUHU216WMR968SP,2013-10-01 23:18:00,
2013-10-01 19:20:00,61.7,44.6,17.72,South,175,0.0,0.0,51,0.00,,,0.00,WUHU216WMR968SP,2013-10-01 23:20:00,
2013-10-01 19:25:00,61.3,42.8,17.72,South,175,0.0,0.0,52,0.00,,,0.00,WUHU216WMR968SP,2013-10-01 23:25:00,
2013-10-01 19:30:00,61.2,42.8,17.72,South,175,0.0,0.0,52,0.00,,,0.00,WUHU216WMR968SP,2013-10-01 23:30:00,
2013-10-01 19:35:00,61.0,42.8,17.72,South,175,0.0,0.0,52,0.00,,,0.00,WUHU216WMR968SP,2013-10-01 23:35:00,
2013-10-01 19:40:00,60.6,42.8,17.72,South,175,0.0,0.0,53,0.00,,,0.00,WUHU216WMR968SP,2013-10-01 23:40:00,
2013-10-01 19:45:00,60.4,42.8,17.72,South,175,0.0,0.0,53,0.00,,,0.00,WUHU216WMR968SP,2013-10-01 23:45:00,
2013-10-01 19:50:00,60.1,42.8,17.72,South,175,0.0,0.0,53,0.00,,,0.00,WUHU216WMR968SP,2013-10-01 23:50:00,
2013-10-01 19:55:00,59.9,44.6,17.72,SW,234,0.0,0.0,54,0.00,,,0.00,WUHU216WMR968SP,2013-10-01 23:55:00,
2013-10-01 20:00:00,59.7,42.8,17.72,SW,234,0.0,0.0,54,0.00,,,0.00,WUHU216WMR968SP,2013-10-02 00:00:00,
2013-10-01 20:05:00,59.5,42.8,17.72,SW,234,0.0,0.0,54,0.00,,,0.00,WUHU216WMR968SP,2013-10-02 00:05:00,
2013-10-01 20:10:00,59.5,42.8,17.72,SW,234,0.0,0.0,54,0.00,,,0.00,WUHU216WMR968SP,2013-10-02 00:10:00,
2013-10-01 20:15:00,59.4,42.8,17.72,SW,234,0.0,0.0,54,0.00,,,0.00,WUHU216WMR968SP,2013-10-02 00:15:00,
2013-10-01 20:16:00,59.4,42.8,17.72,SW,234,0.0,0.0,54,0.00,,,0.00,WUHU216WMR968SP,2013-10-02 00:16:00,
2013-10-01 20:21:00,59.2,42.8,17.72,SW,234,0.0,0.0,54,0.00,,,0.00,WUHU216WMR968SP,2013-10-02 00:21:00,
2013-10-01 20:26:00,59.0,42.8,17.72,SW,234,0.0,0.0,55,0.00,,,0.00,WUHU216WMR968SP,2013-10-02 00:26:00,
2013-10-01 20:31:00,58.8,42.8,17.72,SW,234,0.0,0.0,55,0.00,,,0.00,WUHU216WMR968SP,2013-10-02 00:31:00,
2013-10-01 20:36:00,58.6,42.8,17.72,SW,234,0.0,0.0,55,0.00,,,0.00,WUHU216WMR968SP,2013-10-02 00:36:00,
2013-10-01 20:41:00,58.5,42.8,17.72,SW,234,0.0,0.0,55,0.00,,,0.00,WUHU216WMR968SP,2013-10-02 00:41:00,
2013-10-01 20:46:00,58.5,42.8,17.72,SW,234,0.0,0.0,56,0.00,,,0.00,WUHU216WMR968SP,2013-10-02 00:46:00,
2013-10-01 20:51:00,58.5,42.8,17.72,SW,234,0.0,0.0,56,0.00,,,0.00,WUHU216WMR968SP,2013-10-02 00:51:00,
2013-10-01 20:56:00,58.1,42.8,17.72,SW,234,0.0,0.0,56,0.00,,,0.00,WUHU216WMR968SP,2013-10-02 00:56:00,
2013-10-01 21:01:00,57.9,41.0,17.72,SW,234,0.0,0.0,56,0.00,,,0.00,WUHU216WMR968SP,2013-10-02 01:01:00,
2013-10-01 21:06:00,57.7,41.0,17.72,SW,234,0.0,0.0,56,0.00,,,0.00,WUHU216WMR968SP,2013-10-02 01:06:00,
2013-10-01 21:11:00,57.6,41.0,17.72,SW,234,0.0,0.0,56,0.00,,,0.00,WUHU216WMR968SP,2013-10-02 01:11:00,
2013-10-01 21:16:00,57.4,41.0,17.72,SW,234,0.0,0.0,56,0.00,,,0.00,WUHU216WMR968SP,2013-10-02 01:16:00,
2013-10-01 21:21:00,57.4,41.0,17.72,SW,234,0.0,0.0,56,0.00,,,0.00,WUHU216WMR968SP,2013-10-02 01:21:00,
2013-10-01 21:26:00,57.4,41.0,17.72,SW,234,0.0,0.0,56,0.00,,,0.00,WUHU216WMR968SP,2013-10-02 01:26:00,
2013-10-01 21:31:00,57.2,41.0,17.72,SW,234,0.0,0.0,56,0.00,,,0.00,WUHU216WMR968SP,2013-10-02 01:31:00,
2013-10-01 21:36:00,57.0,41.0,17.72,SW,234,0.0,0.0,56,0.00,,,0.00,WUHU216WMR968SP,2013-10-02 01:36:00,
2013-10-01 21:41:00,56.8,42.8,17.72,SW,234,0.0,0.0,57,0.00,,,0.00,WUHU216WMR968SP,2013-10-02 01:41:00,
2013-10-01 21:46:00,56.7,42.8,17.72,SW,234,0.0,0.0,57,0.00,,,0.00,WUHU216WMR968SP,2013-10-02 01:46:00,
2013-10-01 21:51:00,56.7,42.8,17.72,SW,234,0.0,0.0,57,0.00,,,0.00,WUHU216WMR968SP,2013-10-02 01:51:00,
2013-10-01 21:56:00,56.5,42.8,17.72,SW,234,0.0,0.0,57,0.00,,,0.00,WUHU216WMR968SP,2013-10-02 01:56:00,
2013-10-01 22:01:00,56.3,42.8,17.72,SW,234,0.0,0.0,57,0.00,,,0.00,WUHU216WMR968SP,2013-10-02 02:01:00,
2013-10-01 22:06:00,56.1,41.0,17.72,SW,234,0.0,0.0,57,0.00,,,0.00,WUHU216WMR968SP,2013-10-02 02:06:00,
2013-10-01 22:11:00,55.9,41.0,17.72,SW,234,0.0,0.0,57,0.00,,,0.00,WUHU216WMR968SP,2013-10-02 02:11:00,
2013-10-01 22:16:00,55.9,41.0,17.72,SW,234,0.0,0.0,57,0.00,,,0.00,WUHU216WMR968SP,2013-10-02 02:16:00,
2013-10-01 22:21:00,55.9,41.0,17.72,SW,234,0.0,0.0,57,0.00,,,0.00,WUHU216WMR968SP,2013-10-02 02:21:00,
2013-10-01 22:26:00,55.9,41.0,17.72,SW,234,0.0,0.0,57,0.00,,,0.00,WUHU216WMR968SP,2013-10-02 02:26:00,
2013-10-01 22:31:00,55.8,41.0,17.72,SW,234,0.0,0.0,57,0.00,,,0.00,WUHU216WMR968SP,2013-10-02 02:31:00,
2013-10-01 22:36:00,55.8,41.0,17.72,SW,234,0.0,0.0,57,0.00,,,0.00,WUHU216WMR968SP,2013-10-02 02:36:00,
2013-10-01 22:41:00,55.6,41.0,17.72,SW,234,0.0,0.0,57,0.00,,,0.00,WUHU216WMR968SP,2013-10-02 02:41:00,
2013-10-01 22:47:00,55.4,41.0,17.72,SW,234,0.0,0.0,57,0.00,,,0.00,WUHU216WMR968SP,2013-10-02 02:47:00,
2013-10-01 22:52:00,55.4,41.0,17.72,SW,234,0.0,0.0,57,0.00,,,0.00,WUHU216WMR968SP,2013-10-02 02:52:00,
2013-10-01 22:57:00,55.2,41.0,17.72,SW,234,0.0,0.0,57,0.00,,,0.00,WUHU216WMR968SP,2013-10-02 02:57:00,
2013-10-01 23:02:00,55.0,41.0,17.72,SW,234,0.0,0.0,57,0.00,,,0.00,WUHU216WMR968SP,2013-10-02 03:02:00,
2013-10-01 23:07:00,54.9,41.0,17.72,SW,234,0.0,0.0,57,0.00,,,0.00,WUHU216WMR968SP,2013-10-02 03:07:00,
2013-10-01 23:12:00,54.9,41.0,17.72,SW,234,0.0,0.0,57,0.00,,,0.00,WUHU216WMR968SP,2013-10-02 03:12:00,
2013-10-01 23:17:00,54.7,41.0,17.72,SW,234,0.0,0.0,57,0.00,,,0.00,WUHU216WMR968SP,2013-10-02 03:17:00,
2013-10-01 23:22:00,54.5,41.0,17.72,SW,234,0.0,0.0,57,0.00,,,0.00,WUHU216WMR968SP,2013-10-02 03:22:00,
2013-10-01 23:27:00,54.5,41.0,17.72,SW,234,0.0,0.0,58,0.00,,,0.00,WUHU216WMR968SP,2013-10-02 03:27:00,
2013-10-01 23:32:00,54.5,41.0,17.72,SW,234,0.0,0.0,58,0.00,,,0.00,WUHU216WMR968SP,2013-10-02 03:32:00,
2013-10-01 23:37:00,54.5,41.0,17.72,SW,234,0.0,0.0,58,0.00,,,0.00,WUHU216WMR968SP,2013-10-02 03:37:00,
2013-10-01 23:42:00,54.5,41.0,17.72,SW,234,0.0,0.0,58,0.00,,,0.00,WUHU216WMR968SP,2013-10-02 03:42:00,
2013-10-01 23:47:00,54.5,41.0,17.72,SW,234,0.0,0.0,58,0.00,,,0.00,WUHU216WMR968SP,2013-10-02 03:47:00,
2013-10-01 23:52:00,54.3,39.2,17.72,SW,234,0.0,0.0,58,0.00,,,0.00,WUHU216WMR968SP,2013-10-02 03:52:00,
2013-10-01 23:57:00,54.3,39.2,17.72,SW,234,0.0,0.0,58,0.00,,,0.00,WUHU216WMR968SP,2013-10-02 03:57:00,